Content
SEND FEEDBACK

Daily
Averages
Monthly
Summary
United States of America

ANN ARBOR, MICHIGAN


Home > North America > United States > Michigan
Elevation: 759 feet     Latitude: 42 17N     Longitude: 083 43W

WEATHER
 
SELECT A DAY
Number of Records: 206,302;   Date Range: 1/1/95 - 9/30/14
 
SHARE

PRINT THIS DATA

[ ← Previous Day ]
WEATHER ALMANAC - JANUARY 9, 2013
[ Next Day → ]
[ °C ]   °F
Weather ElementAverageHighLow
Temperature31.7 °F45 °F (3:53 pm)15.8 °F (2:12 am)
Dewpoint23.5 °F30.9 °F (7:53 am)14 °F (2:12 am)
Humidity74 %100 % (1:31 am)44 % (3:53 pm)
Barometer30.19 in30.47 in (11:53 pm)30.07 in (6:53 am)
Wind Speed9 mph21.9 mph (2:53 pm)
Wind Gust32.2 mph (3:53 pm)
Weather ElementAverage
Visibility6.5 mi
Wind DirectionSSW (196.1 °)

Weather ElementTotal
Precipitation---
Heating Degree Days34.6 (Base 65)
Averaged from 31 records on January 9, 2013
WEATHER CONDITIONS BREAKOUT
WIND DIRECTION BREAKOUT
WEATHER BY HOUR - JANUARY 9, 2013
[ °C ]   °F
Local TimeTemperatureDewpointHumidityBarometerVisibilityWind DirectionWind SpeedGust SpeedPrecipitationEventsConditions
12:53 AM21.9 °F16.0 °F78 %30.18 in2.5 miCalmHaze
1:02 AM19.4 °F17.6 °F93 %30.14 in1.2 miCalmClear
1:22 AM21.2 °F19.4 °F93 %30.12 in1.5 miCalmClear
1:31 AM21.2 °F21.2 °F100 %30.12 in2.5 miCalmClear
1:39 AM24.8 °F21.2 °F86 %30.11 in3.0 miCalmClear
1:50 AM19.4 °F15.8 °F86 %30.11 in2.0 miCalmClear
1:53 AM19.9 °F17.1 °F89 %30.14 in2.0 miCalmClear
2:12 AM15.8 °F14.0 °F93 %30.10 in1.8 miSSW (210°)3.5 mphClear
2:19 AM21.2 °F19.4 °F93 %30.10 in2.5 miSW (220°)4.6 mphClear
2:53 AM21.9 °F19.0 °F89 %30.14 in2.5 miSW (220°)4.6 mphPartly Cloudy
3:13 AM21.2 °F19.4 °F93 %30.11 in3.0 miSSW (210°)5.8 mphPartly Cloudy
3:53 AM27.0 °F24.1 °F89 %30.12 in4.0 miSSW (210°)5.8 mphOvercast
4:53 AM30.0 °F26.1 °F85 %30.08 in5.0 miSSW (200°)5.8 mphOvercast
5:53 AM33.1 °F28.0 °F82 %30.09 in6.0 miWSW (240°)8.1 mphHaze
6:53 AM35.1 °F30.0 °F82 %30.07 in7.0 miSSW (210°)8.1 mph0.00 inMostly Cloudy
7:53 AM37.0 °F30.9 °F79 %30.08 in9.0 miSW (220°)12.7 mphClear
8:53 AM36.0 °F30.0 °F79 %30.11 in7.0 miWSW (240°)11.5 mphClear
9:53 AM39.9 °F30.9 °F70 %30.13 in10.0 miWSW (250°)17.3 mph25.3 mphClear
10:53 AM41.0 °F30.9 °F67 %30.15 in10.0 miWest (270°)15.0 mph24.2 mphClear
11:53 AM42.1 °F28.9 °F60 %30.15 in10.0 miWest (270°)19.6 mph26.5 mphClear
1:53 PM43.0 °F28.0 °F56 %30.16 in10.0 miWest (260°)20.7 mph31.1 mphClear
2:53 PM44.1 °F26.1 °F49 %30.18 in10.0 miWest (270°)21.9 mph28.8 mphClear
3:53 PM45.0 °F24.1 °F44 %30.20 in10.0 miWest (280°)20.7 mph32.2 mphClear
4:53 PM43.0 °F24.1 °F47 %30.23 in10.0 miWest (270°)16.1 mph26.5 mphClear
5:53 PM42.1 °F23.0 °F47 %30.27 in10.0 miWest (270°)15.0 mphClear
6:53 PM39.9 °F23.0 °F51 %30.32 in10.0 miWNW (290°)11.5 mphClear
7:53 PM39.9 °F23.0 °F51 %30.36 in10.0 miNW (310°)17.3 mph23.0 mphClear
8:53 PM37.9 °F24.1 °F57 %30.38 in10.0 miNW (310°)13.8 mph18.4 mphClear
9:53 PM37.0 °F25.0 °F62 %30.40 in10.0 miNW (320°)9.2 mphClear
10:53 PM35.1 °F25.0 °F67 %30.42 in10.0 miNW (310°)4.6 mphClear
11:53 PM28.0 °F21.9 °F78 %30.47 in10.0 miSW (220°)5.8 mphClear
Hourly data recorded from KARB, located miles away from Ann Arbor, Michigan







STORIES FROM OUR PARTNERS